Flag for South Africa Weather past 2 weeks in Pretoria, South Africa

Now
64 °F

Mild.


Feels Like: 64 °F
Forecast: 38 / 72 °F
Wind: 3 mph from Northwest

Location: Waterkloof Lmb

Current Time: Aug 3, 2015 at 5:52:42 PM

Latest Report: Aug 3, 2015 at 5:00 PM


Visibility: N/A

Pressure: 30.33 "Hg (25.92 "Hg at 1338m altitude)

Humidity: 18%

Dew point: 19 °F

Location of PretoriaLocation

Historic Weather in Pretoria — Graph

°F

Pretoria temperature yesterday

Maximum temperature yesterday: 64 °F (at 3:00 PM)
Minimum temperature yesterday: 32 °F (at 4:00 AM)
Average temperature yesterday: 47 °F

Past Weeks' High & Low Weather Summary

 TemperatureHumidityPressure
High73 °F (Jul 30, 2:00 PM)100% (Jul 26, 7:00 AM)30.54 "Hg (Jul 26, 7:00 AM)
Low28 °F (Aug 1, 6:00 AM)5% (Aug 1, 2:00 PM)30.09 "Hg (Jul 24, 2:00 PM)
Average52 °F46%30.31 "Hg
* Reported Jul 20 11:00 AM — Aug 3 4:00 PM, Pretoria, Weather by CustomWeather, © 2015

Note: Actual official high and low records may vary slightly from our data, if they occured in-between our weather recording intervals... More about our weather records

Advertising

Pretoria weather history for previous 24 hours

 ConditionsComfort  
Time TempWeatherWind HumidityBarometerVisibility
4:00 PM
Mon, Aug 3
66 °FMild.5 mph14%30.36 "HgN/A
3:00 PM68 °FMild.7 mph14%30.36 "HgN/A
2:00 PM66 °FMild.5 mph18%30.39 "HgN/A
1:00 PM64 °FMild.6 mph21%30.42 "HgN/A
12:00 PM63 °FMild.6 mph24%30.45 "HgN/A
11:00 AM59 °FRefreshingly cool.6 mph29%30.45 "HgN/A
10:00 AM57 °FRefreshingly cool.8 mph31%30.48 "HgN/A
9:00 AM54 °FCool.6 mph30%30.48 "HgN/A
8:00 AM45 °FQuite cool.1 mph46%30.45 "HgN/A
7:00 AM34 °FChilly.2 mph60%30.45 "HgN/A
6:00 AM36 °FChilly.1 mph60%30.42 "HgN/A
5:00 AM34 °FChilly.3 mph60%30.42 "HgN/A
4:00 AM34 °FChilly.2 mph65%30.42 "HgN/A
3:00 AM34 °FChilly.2 mph65%30.42 "HgN/A
2:00 AM37 °FChilly.1 mph56%30.45 "HgN/A
1:00 AM37 °FChilly.1 mph56%30.45 "HgN/A
12:00 AM39 °FChilly.No wind52%N/AN/A
11:00 PM
Sun, Aug 2
41 °FQuite cool.1 mph49%30.45 "HgN/A
10:00 PM41 °FQuite cool.1 mph49%30.45 "HgN/A
9:00 PM45 °FQuite cool.2 mph37%30.45 "HgN/A
8:00 PM48 °FCool.2 mph32%30.45 "HgN/A
7:00 PM50 °FCool.6 mph30%30.45 "HgN/A
6:00 PM54 °FCool.6 mph26%30.45 "HgN/A
5:00 PM63 °FMild.6 mph19%30.42 "HgN/A
Weather by CustomWeather, © 2015

See weather overviewHow to use our weather pages